Location: Unspecified
(42.5000°N, 12.5000°E)
Time: 05:11:38
(UTC+01:00)

N. Korean satellite - Visible Passes

Search period start: 03 February 2023 00:00
Search period end: 13 February 2023 00:00
Orbit: 407 x 443 km, 97.3° (Epoch: 02 February)

Date Brightness Start Highest point End Pass type
(mag) Time Alt. Az. Time Alt. Az. Time Alt. Az.
03 Feb 8.9 04:53:48 10° NE 04:56:22 21° E 04:58:55 10° SSE visible
03 Feb 7.7 06:26:10 10° NNW 06:28:30 19° WNW 06:30:52 10° WSW visible
04 Feb 6.1 05:42:49 10° N 05:46:03 73° WNW 05:49:17 10° SSW visible
05 Feb 8.5 05:00:29 10° NE 05:03:17 26° E 05:06:04 10° SSE visible
05 Feb 7.9 06:33:17 10° NNW 06:35:19 16° WNW 06:37:22 10° WSW visible
06 Feb 6.3 05:49:35 10° N 05:52:46 57° WNW 05:56:00 10° SSW visible
07 Feb 8.1 05:06:58 10° NNE 05:09:55 31° E 05:12:53 10° SSE visible
07 Feb 8.1 06:40:15 10° NW 06:41:53 13° WNW 06:43:32 10° W visible
08 Feb 6.5 05:56:07 10° N 05:59:15 46° WNW 06:02:25 10° SSW visible
09 Feb 7.7 05:13:13 10° NNE 05:16:19 38° E 05:19:25 10° S visible
09 Feb 8.3 06:47:07 10° NW 06:48:11 11° WNW 06:49:17 10° W visible
10 Feb 9.8 04:32:14 10° ENE 04:33:04 11° E 04:33:55 10° ESE visible
10 Feb 6.8 06:02:25 10° N 06:05:29 38° WNW 06:08:32 10° SW visible
11 Feb 7.3 05:19:16 10° NNE 05:22:27 47° E 05:25:38 10° S visible
12 Feb 9.7 04:37:32 10° ENE 04:39:07 13° E 04:40:42 10° ESE visible
12 Feb 7.0 06:08:29 10° N 06:11:26 31° WNW 06:14:24 10° SW visible
